EW9515 Weather Reports


Display with metric or nautical units.
time (UTC)temp
F
wind
direction
speed
MPH
gust
MPH
rain 1hr
in
rain 24hr
in
rain mn
in
humidity
%
barometer
mb
20260503195818 68 180 1.0 1.0 0.00 0.02 0.01 94 1015.9
20260503194838 68 180 1.0 2.0 0.00 0.02 0.01 94 1015.9
20260503193817 68 0.0 0.0 0.00 0.02 0.01 94 1015.7
20260503192819 68 0.0 1.0 0.00 0.02 0.01 94 1015.6
20260503191817 67 0.0 0.0 0.00 0.02 0.01 93 1015.6
20260503190818 68 0.0 0.0 0.00 0.02 0.01 93 1015.5
20260503185817 68 180 1.0 1.0 0.00 0.02 0.01 93 1015.5
20260503184818 68 180 1.0 2.0 0.00 0.02 0.01 93 1015.6
20260503183817 68 180 1.0 2.0 0.00 0.02 0.01 93 1015.6
20260503182823 68 0.0 0.0 0.01 0.02 0.01 93 1015.5
20260503181817 68 0.0 0.0 0.01 0.02 0.01 93 1015.5
20260503180818 68 0.0 0.0 0.01 0.02 0.01 93 1015.5
20260503175817 68 180 1.0 2.0 0.01 0.02 0.01 93 1015.5
20260503174828 68 180 1.0 2.0 0.01 0.02 0.01 93 1015.6
20260503173822 68 180 1.0 2.0 0.01 0.02 0.01 93 1015.6
20260503172822 68 180 1.0 1.0 0.00 0.01 0.00 93 1015.6
20260503171817 68 180 1.0 2.0 0.00 0.01 0.00 92 1015.7
20260503170817 67 180 1.0 2.0 0.00 0.01 0.00 92 1015.7
20260503150823 69 203 1.0 1.0 0.00 0.01 0.00 89 1016.7
20260503130828 69 158 3.0 4.0 0.00 0.01 0.01 88 1017.5
20260503110823 69 158 2.0 2.0 0.00 0.01 0.01 87 1017.8
20260503080823 71 135 2.0 4.0 0.00 0.01 0.01 83 1017.0
20260503072818 73 135 1.0 2.0 0.00 0.01 0.01 81 1016.9
20260503071838 73 135 2.0 3.0 0.00 0.01 0.01 80 1016.7
20260503070817 73 0.0 1.0 0.00 0.02 0.01 80 1016.7
20260503054827 76 113 2.0 3.0 0.00 0.02 0.01 76 1016.8
20260503053818 76 113 2.0 3.0 0.00 0.03 0.01 75 1016.8
20260503052817 76 113 3.0 4.0 0.00 0.09 0.01 75 1016.7
20260503051817 77 113 5.0 7.0 0.00 0.10 0.01 74 1016.8
20260503050837 77 113 5.0 9.0 0.00 0.10 0.01 74 1016.8
20260503045817 77 113 4.0 8.0 0.00 0.10 0.01 72 1016.7
20260503044818 78 113 3.0 7.0 0.00 0.10 0.01 71 1016.7
20260503043817 77 113 3.0 6.0 0.00 0.11 0.01 72 1016.7
20260503042818 77 113 4.0 6.0 0.00 0.11 0.01 72 1016.6
20260503041837 78 113 3.0 7.0 0.00 0.11 0.01 71 1016.7
20260503040817 78 68 4.0 8.0 0.00 0.12 0.01 72 1016.7
20260503035837 78 135 3.0 6.0 0.00 0.12 0.01 72 1016.7
20260503034817 77 180 3.0 5.0 0.00 0.13 0.01 72 1017.0
20260503033837 78 90 2.0 4.0 0.00 0.13 0.01 71 1017.0
20260503032837 78 135 2.0 3.0 0.00 0.13 0.01 72 1016.9
20260503031816 78 113 3.0 5.0 0.00 0.14 0.01 71 1017.0
20260503030817 78 113 4.0 5.0 0.00 0.17 0.01 73 1017.1
20260503025816 77 68 4.0 7.0 0.00 0.17 0.01 73 1017.3
20260503024817 77 113 4.0 8.0 0.00 0.17 0.01 73 1017.4
20260503023816 76 113 5.0 7.0 0.00 0.17 0.01 74 1017.5
20260503022837 76 158 2.0 4.0 0.00 0.17 0.01 75 1017.6
20260503021816 76 90 2.0 3.0 0.00 0.17 0.01 76 1017.8
20260503020817 75 180 4.0 6.0 0.00 0.17 0.01 76 1018.0
20260503015857 75 203 2.0 5.0 0.00 0.17 0.01 75 1018.3
20260503014817 75 113 5.0 10.0 0.00 0.17 0.01 73 1018.4
20260503013817 76 113 3.0 5.0 0.00 0.17 0.01 75 1018.5
20260503012817 75 113 5.0 9.0 0.00 0.17 0.01 75 1018.6
20260503011816 76 90 4.0 7.0 0.00 0.17 0.01 75 1018.8
20260503010819 76 135 4.0 10.0 0.00 0.17 0.01 73 1018.9
20260503005817 76 113 4.0 9.0 0.00 0.20 0.01 73 1019.1
20260503004839 77 180 3.0 5.0 0.00 0.20 0.01 73 1019.2
20260503003818 76 158 2.0 5.0 0.00 0.20 0.01 74 1019.2
20260503002818 77 180 6.0 10.0 0.00 0.20 0.01 73 1019.2
20260503001818 76 90 3.0 6.0 0.00 0.20 0.01 76 1019.2
20260503000819 76 158 5.0 6.0 0.00 0.20 0.01 76 1019.3
20260502235818 76 180 6.0 8.0 0.01 0.20 0.01 74 1019.4
20260502234819 76 180 6.0 8.0 0.01 0.20 0.01 75 1019.4
20260502233838 76 113 3.0 4.0 0.01 0.20 0.01 76 1019.5
20260502232839 75 180 3.0 4.0 0.01 0.20 0.01 76 1019.6
20260502231818 75 203 5.0 8.0 0.01 0.20 0.01 77 1019.6
20260502230819 74 158 7.0 9.0 0.01 0.20 0.01 77 1019.6
20260502225818 74 135 4.0 6.0 0.00 0.19 0.00 78 1019.4
20260502224839 74 158 3.0 5.0 0.00 0.19 0.00 78 1019.4
20260502223818 73 158 2.0 4.0 0.00 0.19 0.00 79 1019.3
20260502222818 73 158 4.0 5.0 0.00 0.19 0.00 79 1019.4
20260502221818 72 203 3.0 4.0 0.00 0.19 0.00 80 1019.3
20260502220818 71 203 4.0 5.0 0.00 0.19 0.00 82 1019.1
20260502215818 71 158 3.0 4.0 0.00 0.19 0.00 82 1018.9
20260502214818 70 180 2.0 3.0 0.00 0.19 0.00 83 1018.9
20260502213818 69 158 3.0 8.0 0.00 0.19 0.00 84 1018.8
20260502212818 69 180 3.0 4.0 0.00 0.19 0.00 84 1018.7
20260502211818 68 158 3.0 3.0 0.00 0.19 0.00 85 1018.6
20260502210818 67 158 3.0 6.0 0.00 0.19 0.00 86 1018.7
20260502205818 66 203 2.0 3.0 0.00 0.19 0.00 87 1018.6
20260502204818 66 203 1.0 2.0 0.00 0.19 0.00 87 1018.5
20260502203818 65 203 1.0 2.0 0.00 0.19 0.00 87 1018.5
20260502202818 65 203 1.0 1.0 0.00 0.19 0.00 87 1018.5
20260502201818 65 203 1.0 1.0 0.00 0.19 0.00 87 1018.5
20260502200818 65 203 2.0 3.0 0.00 0.19 0.00 86 1018.4